Location: Colle Santa Colomba
(42.0333°N, 12.5667°E)
Time: 03:04:35
(UTC+00:00)

FALCON 9 DEB - Pass Details

Date: 25 October 2021
Orbit: 417 x 427 km, 53.0° (Epoch: 28 November)

Event Time Altitude Azimuth Distance (km) Brightness Sun altitude
Rises 17:32:41 0° 215° (SW) 2,383 7.4 -15.4°
Reaches altitude 10° 17:34:51 10° 208° (SSW) 1,521 6.3 -15.8°
Maximum altitude 17:38:05 41° 136° (SE) 637 3.6 -16.4°
Enters shadow 17:38:30 39° 115° (ESE) 663 3.6 -16.5°
